Regional Weather Roundup
Issued by NWS

Home | Current Version | Previous Version | Graphics & Text | Print | Product List | Glossary On
Versions: 1 2 3 4 5 6 7 8 9 10 11 12 13 14 15 16 17 18 19 20 21 22 23 24 25 26 27 28 29 30 31 32 33 34 35 36 37 38 39 40 41 42 43 44 45 46 47 48 49 50
000
ASUS43 KLOT 291359
RWRIL

ILLINOIS REGIONAL WEATHER ROUNDUP
NATIONAL WEATHER SERVICE CHICAGO/ROMEOVILLE IL
900 AM CDT SAT APR 29 2017

NOTE: "FAIR" INDICATES FEW OR NO CLOUDS BELOW 12,000 FEET WITH NO
SIGNIFICANT WEATHER AND/OR OBSTRUCTIONS TO VISIBILITY.

* THESE STATIONS ARE NOT UNDER NWS QUALITY CONTROL. THEY ALSO MAY NOT
  REPORT WEATHER SUCH AS PRECIPITATION OR FOG.

ILZ001-002-007-009-015-016-024-291500-
NORTHWEST ILLINOIS

CITY           SKY/WX    TMP DP  RH WIND       PRES   REMARKS
MOLINE         NOT AVBL
$$

ILZ003-004-008-010-011-017-018-291500-
NORTH CENTRAL ILLINOIS

CITY           SKY/WX    TMP DP  RH WIND       PRES   REMARKS
ROCKFORD       NOT AVBL
$$

ILZ005-006-012>014-019>023-291500-
NORTHEAST ILLINOIS

CITY           SKY/WX    TMP DP  RH WIND       PRES   REMARKS
CHICAGO-OHARE  CLOUDY    45  32  60 NE21      30.16R
CHICAGO-MIDWAY NOT AVBL
AURORA         NOT AVBL
WAUKEGAN       NOT AVBL
DUPAGE AIRPORT NOT AVBL
WHEELING       NOT AVBL
NORTHERLY ISL    N/A     44  36  73 N21         N/A
$$

LMZ740>746-291500-
SOUTHERN LAKE MICHIGAN

STATION/POSITION SKY/WX   TEMP    WIND        PRES    VSBY  WAVE
                          AIR SEA DIR/SP/G                  HT/PER
                          (F)     (DEG/KT/KT) (MB)    (MI)  (FT/S)
SOUTHERN BUOY              41 41   20/ 19/ 21 1022.1R         4/ 5
HARRISON CRIB              44      10/ 24/ 28   N/A
BURNHAM HARBOR             44     360/ 21       N/A
CALUMET HARBOR             45     360/ 17/ 23 1020.0F
BURNS HARBOR               45      20/ 20/ 24 1019.6F
MICHIGAN CITY              44      10/ 21/ 23   N/A
MICHIGAN CITY 6N           44 46                N/A           5/ 5
ST. JOSEPH                 48 48   50/ 14/ 19 1020.7R         4/ 4
$$

ILZ025>027-034>036-040-047-049-050-058-095>099-291500-
WEST-CENTRAL ILLINOIS

CITY           SKY/WX    TMP DP  RH WIND       PRES   REMARKS
QUINCY         CLOUDY    51  48  89 NE14G25   29.96R FOG
$$

ILZ028>032-037-038-041>044-048-051>054-059>061-291500-
CENTRAL ILLINOIS

CITY           SKY/WX    TMP DP  RH WIND       PRES   REMARKS
DECATUR        CLOUDY    48  48 100 NE24G32   29.87F
PEORIA         NOT AVBL
SPRINGFIELD    NOT AVBL
TAYLORVILLE    NOT AVBL
$$

ILZ033-039-045-046-055>057-062-063-291500-
EAST-CENTRAL ILLINOIS

CITY           SKY/WX    TMP DP  RH WIND       PRES   REMARKS
CHAMPAIGN      LGT RAIN  48  46  93 NE21      29.98F FOG
MATTOON        RAIN      51  51 100 NE23      29.95F FOG
$$

ILZ079-100>102-291500-
SOUTHWEST ILLINOIS

CITY           SKY/WX    TMP DP  RH WIND       PRES   REMARKS
ALTON          TSTM      55  55 100 SE14      29.93R FOG
BELLEVILLE     TSTM      57  57 100 SE7       29.92R FOG
CAHOKIA*       LGT RAIN  59  57  93 SE8       29.90R FOG
$$

ILZ064>066-069>071-074>076-080>082-084>086-088>090-092>094-291500-
SOUTH-CENTRAL ILLINOIS

CITY           SKY/WX    TMP DP  RH WIND       PRES   REMARKS
CARBONDALE     NOT AVBL
MARION         LGT RAIN  66  64  94 E12       29.98R
$$

ILZ067-068-072-073-078-083-087-091-291500-
SOUTHEAST ILLINOIS

CITY           SKY/WX    TMP DP  RH WIND       PRES   REMARKS
LAWRENCEVILLE  TSTM      61  61 100 SE6       30.03R FOG
$$

ABBREVIATIONS USED IN REMARKS
   TC - TEMPERATURE IN CELSIUS
  WCI - WIND CHILL INDEX
   HX - HEAT INDEX
  VSB - VISIBILITY
$$




USA.gov is the U.S. government's official web portal to all federal, state and local government web resources and services.